#timestamp,LO_Frequency,Hit,StdDev 
1559044815.9,286047002.6,N
1559044835.7,286047002.4,N
1559044855.6,286047000.2,N
1559044875.4,286047001.0,N
1559044895.2,286047000.9,N
1559044915.1,286046997.1,N
1559044916.0,286046997.1,N
1559044935.8,286046995.2,N
1559044955.7,286046996.7,N
1559044975.5,286046999.3,N
1559044995.3,286046998.6,N
1559045015.2,286046999.1,N
1559045035.0,286046996.9,N
1559045035.9,286046996.9,N
1559045055.8,286046993.6,N
1559045075.6,286046997.7,N
1559045095.4,286046997.7,N
1559045115.3,286046995.1,N
1559045135.1,286046995.4,N
1559045155.9,286046993.8,N
1559045175.7,286046996.4,N
1559045195.5,286046996.2,N
1559045215.4,286046995.8,N
1559045235.2,286046995.3,N
1559045255.1,286046997.7,N
1559045256.0,286046997.7,N
1559045275.8,286046995.1,N
1559045295.6,286046996.0,N
1559045315.5,286046993.5,N
1559045335.3,286046994.1,N
1559045355.1,286046996.3,N
1559045375.9,286046998.5,N
1559045395.7,286046998.9,N
1559045415.6,286046996.6,N
1559045435.4,286046995.0,N
1559045455.2,286046996.0,N
1559045475.1,286046996.8,N
1559045476.0,286046996.8,N
1559045495.8,286046997.8,N
1559045515.7,286046995.1,Y
1559045535.5,286047001.0,P
1559045555.3,286046999.2,N
1559045575.2,286046999.6,N
1559045595.0,286046995.0,Y
1559045595.9,286046995.0,P
1559045615.7,286046997.0,N
1559045635.6,286046999.1,N
1559045655.4,286046999.9,N
1559045675.3,286046999.8,N
1559045695.1,286046999.7,N
1559045696.0,286046999.7,N
1559045715.8,286046999.5,N
1559045735.7,286046995.1,Y
1559045755.5,286046996.0,P
1559045775.4,286046994.1,P
1559045795.2,286046995.6,N
1559045815.0,286046994.6,Y
1559045815.9,286046994.6,P
1559045835.8,286046997.7,P
1559045855.6,286046997.1,N
1559045875.5,286046993.6,Y
1559045895.3,286046996.6,P
1559045915.1,286046997.4,P
1559045935.9,286046997.9,P
1559045955.7,286046996.0,Y
1559045975.5,286046995.4,P
1559045995.4,286046993.3,P
1559046015.2,286046994.6,P
1559046035.1,286046993.5,Y
1559046036.0,286046993.5,P
1559046055.8,286046999.1,N
1559046075.6,286046996.9,N
1559046095.5,286046999.1,N
1559046115.3,286046997.3,N
1559046135.2,286047001.9,N
1559046155.9,286047002.6,N
1559046175.7,286047000.2,N
1559046195.6,286047002.4,N
1559046215.4,286047000.4,N
1559046235.2,286046998.7,N
1559046255.1,286046996.7,N
1559046256.0,286046996.7,N
1559046275.8,286046998.0,N
1559046295.7,286046996.0,N
1559046315.5,286046996.2,N
1559046335.3,286046993.8,N
1559046355.2,286046990.6,Y
1559046375.0,286046996.0,P
1559046375.9,286046996.0,P
1559046395.8,286046994.1,P
1559046415.6,286046996.5,N
1559046435.4,286046996.7,N
1559046455.3,286046992.2,Y
1559046475.1,286046996.4,P
1559046495.8,286046997.5,P
1559046515.7,286046994.9,P
1559046535.5,286046996.9,Y
1559046555.4,286047001.9,P
1559046575.2,286046999.7,N
1559046595.0,286047003.1,N
1559046595.9,286047003.1,N
1559046615.8,286047003.7,N
1559046635.6,286047002.7,N
1559046655.4,286047000.6,N
1559046675.3,286046998.5,N
1559046695.1,286046998.2,N
1559046715.9,286047001.1,N
1559046735.7,286046999.3,N
1559046755.5,286046996.5,N
1559046775.4,286046997.6,N
1559046795.2,286046996.3,N
1559046815.0,286046995.9,N
1559046816.0,286046995.9,N
1559046835.8,286046991.7,Y
1559046855.6,286046994.7,P
1559046875.5,286046994.5,N
1559046895.3,286046992.1,P
1559046915.1,286046994.7,N
1559046935.9,286046994.7,N
1559046955.7,286046990.5,Y
1559046975.6,286046995.4,P
1559046995.4,286046995.0,P
1559047015.2,286046997.4,P
1559047035.1,286046997.0,Y
1559047036.0,286046997.0,P
1559047055.8,286047000.3,N
1559047075.7,286047000.3,N
1559047095.5,286046996.6,N
1559047115.3,286046993.3,Y
1559047135.2,286046999.2,P
1559047155.0,286046999.7,N
1559047155.9,286046999.7,N
1559047175.7,286046998.2,N
1559047195.6,286046996.7,Y
1559047215.4,286046992.8,P
1559047235.3,286046994.5,N
1559047255.1,286046992.8,N
1559047275.8,286046991.4,Y
1559047295.7,286046993.3,P
1559047315.5,286046994.5,P
1559047335.4,286046991.9,P
1559047355.2,286046990.5,Y
1559047375.0,286046995.6,P
1559047375.9,286046995.6,P
1559047395.8,286046993.3,P
1559047415.6,286046996.2,Y
1559047435.5,286046999.5,P
1559047455.3,286046995.0,N
1559047475.1,286046996.4,N
1559047495.9,286046997.9,N
1559047515.7,286046998.0,N
1559047535.5,286046996.6,N
1559047555.4,286046995.0,Y
1559047575.2,286046999.3,P
1559047595.1,286046997.0,N
1559047596.0,286046997.0,N
1559047615.8,286046997.3,N
1559047635.6,286046995.3,Y
1559047655.5,286046997.2,P
1559047675.3,286046997.6,P
1559047695.2,286046995.1,P
1559047715.9,286046996.6,Y
1559047735.7,286047005.6,P
1559047755.6,286047003.8,N
1559047775.4,286047004.3,N
1559047795.2,286047003.9,N
1559047815.1,286047001.7,N
1559047816.0,286047001.7,N
1559047835.8,286047004.1,N
1559047855.7,286046999.8,N
1559047875.5,286047000.4,N
1559047895.3,286047000.3,N
1559047915.2,286046998.9,N
1559047935.0,286046996.9,N
1559047935.9,286046996.9,N
1559047955.8,286047000.5,N
1559047975.6,286047001.9,N
1559047995.4,286046999.8,N
1559048015.3,286047002.7,N
1559048035.1,286047004.2,N
1559048055.8,286047004.6,N
1559048075.7,286047008.1,Y
1559048095.5,286047008.3,P
1559048115.5,286047006.2,N
1559048135.4,286047005.8,N
1559048155.2,286047003.4,N
1559048175.1,286047002.9,N
1559048176.0,286047002.9,N
1559048195.8,286047002.9,N
1559048215.7,286047004.2,N
1559048235.5,286047002.0,N
1559048255.4,286047000.5,N
1559048275.2,286047002.8,N
1559048295.0,286046999.8,N
1559048295.9,286046999.8,N
1559048315.8,286046997.0,N
1559048335.6,286046999.5,N
1559048355.5,286046997.5,N
1559048375.3,286046996.1,N
1559048395.1,286046995.6,N
